Temp
1 2 2 2 2 1 1 1 1 1 1 1 1 1 -0 1 1 2 2 2 3 3 3 3 4 3 4 5 7 5 6 8 8 8 8 8 8 8 8 8 8 8 10 10 10 11 11
-1 -0 -0 -0 -0 1 1 1 1 0 0 0 1 1 0 -0 -0 1 2 2 2 3 3 3 3 3 3 5 7 5 5 6 7 7 8 8 8 7 7 8 8 8 9 9 10 10 10
-2 -2 -2 -2 -2 -1 -1 -0 0 0 0 0 0 0 1 1 0 0 1 1 1 2 2 2 2 2 3 7 6 6 5 5 6 7 7 7 7 7 7 7 7 7 8 8 10 10 10
-4 -4 -4 -4 -3 -3 -3 -2 -2 -1 -1 -0 -0 -0 0 0 1 1 0 1 1 2 1 1 2 2 4 5 6 5 5 6 6 5 6 6 6 6 6 6 6 7 7 8 10 10 10
-6 -6 -7 -7 -8 -8 -6 -5 -4 -4 -3 -2 -2 -1 -1 -0 0 0 0 0 0 1 1 1 0 2 4 5 6 5 4 5 5 5 5 5 4 4 5 5 5 5 6 8 10 10 9
-8 -8 -9 -9 -9 -9 -9 -9 -8 -7 -6 -5 -4 -3 -2 -2 -1 -1 -0 -0 0 -0 -1 0 -0 -1 3 6 6 6 5 4 4 4 5 4 3 3 4 4 4 4 6 7 7 9 9
-10 -10 -10 -9 -9 -9 -9 -9 -9 -9 -8 -8 -7 -6 -4 -3 -3 -3 -2 -1 -0 -0 -0 0 2 2 1 2 5 6 5 4 3 3 4 3 3 4 5 5 6 6 6 6 7 8 8
-11 -10 -10 -10 -9 -9 -9 -9 -9 -9 -9 -8 -8 -8 -7 -5 -4 -4 -3 -2 -1 -2 -2 -1 -1 -0 0 0 2 3 3 3 3 3 3 2 3 6 5 5 5 5 5 5 5 7 8
-11 -11 -11 -10 -10 -10 -10 -10 -9 -9 -9 -8 -8 -8 -8 -7 -7 -5 -4 -3 -4 -4 -2 -2 -1 -1 1 -1 -0 2 3 4 3 3 3 4 7 5 4 5 5 5 5 4 5 7 8
-11 -11 -11 -11 -10 -11 -10 -10 -10 -9 -9 -9 -8 -8 -8 -8 -8 -6 -5 -5 -6 -4 -4 -3 -2 -2 -1 -1 -2 -1 1 2 2 3 4 2 6 4 4 5 4 4 5 5 5 5 5
-11 -11 -11 -11 -11 -11 -11 -10 -10 -10 -9 -9 -9 -9 -10 -9 -8 -7 -7 -7 -6 -3 -4 -3 -2 -1 -0 -1 1 1 -0 1 2 3 1 4 4 3 3 6 4 6 5 5 5 4 4
-12 -11 -11 -11 -11 -11 -11 -11 -11 -10 -10 -10 -10 -10 -10 -10 -9 -8 -8 -7 -6 -4 -4 -3 -2 -2 -3 -1 1 -1 -1 1 1 -0 0 5 4 2 6 4 4 5 3 3 3 3 1
-12 -12 -11 -11 -11 -11 -11 -11 -11 -11 -11 -10 -10 -10 -10 -10 -9 -9 -9 -8 -7 -5 -4 -3 -3 -2 -1 0 1 -2 -2 -1 -1 -1 -1 3 2 2 3 3 2 3 2 2 1 1 2
-12 -12 -12 -12 -11 -11 -11 -11 -11 -11 -11 -11 -11 -11 -11 -10 -10 -10 -9 -9 -7 -6 -5 -4 -3 -3 -2 0 -2 -1 -3 -2 0 0 2 0 1 2 2 3 2 2 2 4 2 2 4
-12 -12 -12 -12 -12 -11 -11 -11 -11 -11 -11 -11 -11 -11 -10 -10 -11 -11 -10 -10 -8 -6 -5 -5 -4 -3 -3 -3 -2 -3 -3 -3 -2 0 1 2 2 4 3 2 2 2 2 5 5 3 1
-12 -12 -12 -12 -12 -12 -12 -12 -12 -11 -11 -11 -11 -11 -10 -11 -12 -11 -11 -11 -9 -7 -5 -5 -4 -3 -3 -3 -3 -3 -3 -2 -2 -0 1 2 2 2 3 2 3 3 6 2 4 0 1
-12 -12 -12 -12 -12 -12 -12 -12 -12 -12 -11 -12 -11 -12 -11 -11 -11 -11 -12 -10 -9 -7 -7 -7 -5 -3 -3 -3 -3 -3 -1 0 2 -1 0 1 2 3 3 2 3 2 3 3 4 4 2
-12 -12 -12 -12 -12 -12 -12 -11 -11 -11 -11 -12 -11 -12 -12 -11 -11 -11 -11 -9 -7 -7 -8 -7 -7 -6 -4 -3 -2 -3 -2 2 2 1 -1 1 1 2 3 3 4 3 4 4 4 2 3
-11 -11 -11 -11 -11 -11 -11 -11 -11 -11 -11 -11 -11 -11 -12 -12 -11 -11 -10 -9 -8 -7 -8 -8 -8 -5 -4 -3 -2 -2 1 3 0 -0 -1 -0 0 1 2 2 3 3 3 4 4 4 3
-11 -11 -11 -11 -11 -11 -11 -11 -11 -11 -11 -12 -11 -11 -11 -11 -11 -11 -11 -10 -9 -7 -8 -7 -8 -6 -5 -4 -2 -1 0 2 1 1 -0 0 -0 -0 1 2 2 2 2 3 3 3 4
-11 -11 -11 -11 -11 -11 -11 -12 -11 -11 -12 -11 -11 -11 -11 -10 -10 -10 -10 -10 -10 -10 -9 -8 -8 -6 -8 -7 -4 -1 1 -0 -1 1 -0 -2 -1 -1 -1 1 3 3 3 3 2 3 3
-11 -11 -11 -11 -11 -11 -11 -11 -11 -11 -11 -11 -10 -11 -10 -10 -10 -11 -10 -9 -9 -9 -10 -8 -8 -6 -5 -5 -7 -4 -1 -0 -0 -0 0 -1 -1 -1 -1 -0 1 2 3 3 4 3 3
-11 -11 -11 -11 -11 -11 -11 -11 -11 -11 -11 -11 -10 -11 -11 -10 -10 -10 -9 -8 -8 -8 -8 -9 -8 -8 -8 -5 -4 -4 -3 -1 0 -0 -0 -1 -1 -1 -1 -1 -0 -1 2 2 3 3 4
-10 -11 -11 -11 -11 -11 -11 -11 -11 -11 -11 -11 -11 -11 -11 -10 -10 -10 -9 -9 -8 -8 -8 -8 -8 -8 -4 -7 -6 -6 -4 -2 -1 -1 -0 -1 -1 -1 -1 -1 -1 0 0 1 2 2 2
-10 -10 -10 -10 -11 -11 -11 -10 -10 -11 -11 -10 -10 -10 -11 -11 -10 -10 -10 -10 -10 -9 -9 -8 -8 -7 -7 -7 -7 -7 -5 -2 -2 -2 -1 -1 -1 -1 -2 -1 -1 -0 0 1 1 2 2
-10 -11 -11 -11 -11 -11 -10 -10 -11 -10 -11 -10 -10 -10 -10 -10 -9 -9 -10 -9 -9 -9 -9 -7 -7 -7 -8 -5 -6 -6 -3 -3 -2 -2 -2 -1 -2 -2 -4 -3 -2 1 2 2 1 -1 2
-11 -11 -11 -11 -11 -11 -10 -11 -10 -10 -10 -10 -10 -10 -9 -9 -9 -9 -9 -9 -9 -9 -9 -8 -7 -7 -7 -8 -5 -5 -3 -3 -3 -2 -3 -2 -2 -2 -3 -3 -1 1 0 1 -1 2 4
-11 -11 -11 -11 -11 -11 -10 -10 -10 -10 -9 -9 -9 -9 -9 -9 -9 -9 -9 -9 -9 -9 -9 -6 -8 -8 -7 -8 -5 -5 -4 -4 -2 -1 -2 -2 -3 -3 -3 -3 -2 1 0 0 2 2 2
-12 -12 -12 -11 -11 -10 -10 -10 -9 -9 -9 -9 -9 -8 -9 -9 -9 -9 -9 -9 -9 -8 -8 -9 -8 -7 -6 -5 -6 -5 -4 -4 -3 -3 -2 -3 -2 -1 -1 -0 1 1 2 1 1 1 1
Height
3018 3018 3019 3019 3020 3021 3022 3025 3028 3030 3034 3036 3038 3042 3047 3053 3057 3061 3066 3070 3073 3076 3080 3082 3084 3086 3086 3088 3092 3101 3104 3106 3110 3113 3116 3118 3118 3121 3121 3123 3125 3124 3127 3127 3129 3132 3132
3007 3007 3007 3008 3009 3011 3012 3013 3016 3019 3021 3025 3028 3032 3036 3041 3046 3052 3057 3061 3065 3068 3071 3074 3075 3078 3078 3075 3092 3097 3100 3102 3104 3107 3110 3112 3114 3115 3116 3117 3118 3120 3121 3122 3124 3126 3127
2997 2997 2998 2999 2999 3001 3001 3002 3005 3007 3009 3013 3016 3020 3024 3029 3035 3041 3045 3052 3055 3061 3063 3065 3066 3067 3066 3065 3081 3086 3092 3097 3101 3103 3105 3107 3108 3110 3110 3112 3113 3115 3117 3117 3120 3122 3122
2986 2985 2986 2987 2988 2990 2991 2992 2994 2996 2998 3001 3005 3008 3013 3017 3022 3029 3034 3040 3047 3053 3052 3056 3057 3059 3049 3059 3072 3078 3085 3091 3094 3098 3101 3102 3103 3104 3104 3107 3108 3110 3111 3111 3116 3116 3118
2975 2975 2975 2976 2978 2978 2980 2981 2984 2986 2989 2990 2993 2996 3001 3005 3010 3016 3022 3029 3037 3043 3047 3043 3046 3049 3043 3050 3058 3075 3079 3083 3088 3090 3095 3097 3096 3098 3100 3102 3105 3104 3104 3106 3109 3112 3113
2965 2965 2967 2969 2971 2971 2972 2973 2975 2976 2979 2982 2984 2986 2990 2994 2998 3004 3010 3016 3026 3032 3036 3037 3033 3043 3037 3033 3048 3066 3071 3076 3080 3083 3086 3088 3088 3089 3092 3093 3090 3099 3100 3100 3101 3107 3108
2956 2957 2959 2961 2963 2965 2965 2967 2968 2970 2971 2972 2975 2977 2979 2983 2987 2993 3000 3007 3017 3019 3015 3015 3014 3021 3026 3032 3040 3044 3056 3066 3070 3074 3073 3078 3081 3070 3079 3086 3093 3096 3096 3095 3098 3106 3102
2947 2949 2951 2953 2955 2956 2958 2959 2961 2963 2965 2966 2967 2970 2971 2974 2977 2983 2988 2992 3001 3007 3009 3008 3011 3013 3023 3028 3033 3039 3046 3051 3055 3055 3068 3072 3060 3068 3077 3084 3088 3090 3089 3088 3093 3099 3098
2940 2941 2943 2944 2946 2948 2950 2952 2954 2956 2957 2959 2960 2962 2964 2966 2969 2973 2978 2984 2994 3000 3001 2997 3001 3004 3014 3024 3023 3032 3040 3044 3044 3050 3052 3053 3052 3067 3069 3073 3077 3077 3077 3083 3089 3095 3093
2934 2935 2936 2938 2939 2940 2943 2944 2946 2947 2949 2951 2952 2954 2957 2959 2964 2966 2970 2979 2988 2996 2991 2985 2989 2989 3001 3013 3010 3026 3031 3041 3039 3040 3047 3049 3054 3057 3059 3061 3070 3069 3075 3082 3086 3090 3084
2929 2929 2931 2931 2932 2934 2936 2937 2938 2940 2941 2943 2944 2946 2949 2952 2955 2960 2967 2973 2981 2986 2968 2975 2975 2982 2990 2998 3004 3007 3025 3031 3031 3032 3038 3030 3037 3046 3050 3048 3062 3060 3071 3075 3081 3081 3082
2925 2925 2926 2926 2926 2927 2929 2930 2932 2933 2935 2936 2937 2938 2942 2944 2947 2955 2958 2965 2974 2970 2950 2958 2961 2966 2976 2982 2992 3002 3010 3021 3027 3029 3030 3031 3035 3041 3035 3051 3055 3063 3067 3072 3076 3077 3070
2921 2921 2920 2920 2920 2921 2923 2924 2926 2928 2929 2930 2932 2934 2935 2937 2944 2946 2950 2958 2961 2947 2947 2949 2950 2956 2961 2968 2976 2988 2995 3004 3010 3018 3020 3021 3024 3030 3034 3042 3049 3055 3062 3068 3073 3070 3053
2916 2915 2915 2915 2916 2916 2917 2919 2920 2922 2924 2926 2928 2929 2930 2933 2935 2938 2942 2949 2943 2938 2939 2939 2947 2950 2949 2956 2961 2970 2982 2992 3001 3005 3009 3012 3015 3014 3019 3024 3033 3042 3050 3052 3052 3054 3046
2912 2911 2910 2910 2910 2911 2912 2913 2914 2917 2918 2921 2922 2923 2924 2927 2930 2933 2936 2932 2926 2933 2939 2942 2944 2946 2948 2953 2958 2962 2966 2974 2987 2993 3000 3000 3000 3008 3010 3019 3028 3032 3040 3032 3043 3043 3043
2907 2906 2906 2905 2905 2905 2906 2907 2909 2911 2913 2916 2915 2915 2916 2921 2923 2925 2926 2922 2922 2928 2932 2935 2935 2935 2938 2943 2951 2953 2955 2962 2975 2982 2992 2993 2997 2998 3007 3016 3019 3019 3026 3035 3036 3038 3038
2903 2901 2901 2900 2900 2900 2901 2902 2903 2906 2908 2910 2909 2908 2908 2915 2916 2917 2915 2914 2915 2920 2925 2924 2927 2928 2932 2934 2936 2937 2941 2947 2950 2968 2983 2986 2989 2991 2997 2995 2997 3011 3013 3017 3021 3023 3018
2896 2895 2894 2893 2893 2893 2894 2896 2898 2900 2903 2903 2903 2904 2906 2909 2911 2908 2907 2908 2913 2912 2920 2922 2922 2921 2920 2929 2930 2933 2936 2934 2936 2948 2960 2967 2979 2981 2982 2988 2992 2994 2994 2997 3001 3001 3005
2889 2887 2886 2886 2886 2886 2887 2889 2891 2893 2896 2898 2897 2898 2902 2904 2901 2899 2900 2901 2904 2906 2908 2912 2914 2917 2917 2921 2924 2924 2926 2927 2932 2942 2948 2960 2965 2974 2978 2982 2982 2982 2982 2990 2992 2994 2994
2881 2880 2879 2879 2879 2880 2881 2882 2885 2888 2891 2891 2893 2893 2894 2895 2894 2895 2897 2894 2895 2896 2899 2905 2905 2909 2904 2914 2912 2915 2918 2920 2928 2935 2942 2951 2951 2951 2950 2946 2970 2972 2977 2982 2987 2989 2977
2873 2873 2872 2872 2872 2873 2875 2876 2879 2882 2884 2886 2885 2883 2886 2884 2885 2888 2891 2889 2888 2889 2891 2897 2895 2898 2902 2903 2899 2902 2910 2913 2922 2926 2934 2942 2939 2946 2942 2958 2959 2960 2963 2967 2973 2965 2976
2866 2866 2865 2865 2866 2867 2869 2871 2873 2876 2878 2878 2878 2878 2880 2878 2881 2882 2882 2877 2878 2880 2885 2886 2884 2891 2890 2889 2898 2894 2907 2907 2911 2917 2918 2928 2927 2935 2935 2947 2950 2951 2954 2954 2955 2955 2968
2860 2859 2859 2860 2860 2861 2863 2865 2867 2870 2871 2868 2870 2872 2873 2871 2872 2872 2863 2867 2868 2880 2876 2880 2878 2880 2884 2883 2889 2890 2893 2901 2904 2907 2911 2917 2919 2922 2921 2934 2940 2940 2925 2941 2948 2952 2951
2855 2855 2855 2855 2855 2856 2858 2859 2861 2863 2863 2862 2863 2866 2865 2859 2860 2855 2860 2862 2863 2868 2866 2871 2876 2879 2876 2889 2893 2889 2888 2888 2892 2895 2899 2905 2910 2915 2914 2923 2921 2910 2926 2931 2938 2942 2946
2852 2852 2851 2851 2851 2852 2853 2854 2855 2856 2856 2854 2854 2855 2854 2846 2847 2848 2851 2854 2858 2857 2855 2859 2867 2872 2876 2877 2880 2882 2882 2878 2871 2879 2889 2898 2904 2905 2908 2912 2910 2907 2913 2919 2924 2919 2933
2851 2850 2850 2849 2849 2848 2848 2848 2848 2848 2848 2845 2845 2846 2843 2837 2822 2839 2841 2843 2842 2844 2848 2844 2853 2861 2868 2868 2870 2869 2868 2863 2863 2870 2880 2888 2898 2903 2899 2905 2903 2900 2907 2914 2920 2913 2922
2851 2850 2848 2847 2846 2844 2843 2842 2841 2839 2838 2836 2833 2833 2829 2819 2817 2827 2823 2829 2837 2840 2838 2840 2845 2850 2857 2857 2855 2859 2860 2853 2859 2861 2872 2881 2888 2889 2897 2896 2896 2896 2903 2909 2914 2904 2910
2852 2849 2847 2845 2843 2840 2838 2836 2833 2829 2827 2825 2820 2820 2817 2806 2804 2807 2815 2820 2824 2829 2832 2833 2841 2841 2849 2851 2849 2850 2852 2845 2850 2857 2862 2869 2877 2883 2889 2893 2892 2889 2898 2902 2902 2901 2904
2852 2849 2846 2843 2839 2836 2832 2829 2824 2820 2816 2812 2804 2800 2797 2796 2791 2794 2800 2808 2813 2821 2828 2829 2831 2834 2838 2837 2839 2843 2846 2845 2848 2850 2855 2864 2865 2870 2877 2876 2880 2881 2886 2891 2895 2898 2898
Wind_Speed
45 46 46 47 47 49 50 49 49 50 50 50 51 50 51 46 46 49 46 43 43 42 42 42 43 42 41 43 43 23 18 22 31 29 29 28 29 28 31 29 30 32 31 31 28 24 26
44 44 45 45 46 47 48 50 49 48 49 51 52 53 56 54 52 52 50 46 45 43 43 44 44 45 46 53 41 34 34 20 20 28 30 31 30 31 31 33 32 33 34 35 31 28 27
41 43 44 45 46 45 47 48 49 50 50 49 50 53 54 55 57 55 47 57 45 45 44 46 47 46 52 57 41 34 40 36 32 21 27 30 32 31 33 32 33 34 34 35 33 30 28
39 41 41 42 43 43 43 45 46 47 49 50 50 50 51 55 57 63 62 57 48 51 44 46 48 50 60 56 50 46 34 35 39 36 25 27 30 34 35 31 30 27 34 37 33 32 30
36 40 33 34 28 32 35 38 39 41 43 46 48 49 49 50 54 56 58 63 54 42 39 40 52 52 63 60 56 48 42 40 31 41 35 28 31 33 36 35 31 25 21 32 37 35 31
33 34 28 26 28 29 28 28 30 33 35 38 41 46 47 48 50 51 53 55 57 58 50 39 48 53 64 61 57 52 47 42 41 29 42 42 36 37 39 39 31 32 32 36 36 32 28
31 28 29 28 32 32 32 31 29 29 28 29 32 36 41 43 44 44 49 50 53 58 67 56 57 55 56 21 34 53 39 47 46 43 40 45 42 53 50 44 40 40 31 37 40 32 32
27 27 27 30 33 34 34 31 29 29 30 30 29 30 32 36 39 40 44 50 52 50 42 57 55 52 46 44 33 16 43 38 53 57 48 40 55 56 49 43 42 42 44 42 32 27 31
27 28 29 31 32 31 32 30 30 30 31 31 31 32 31 33 35 36 41 46 41 37 42 49 60 56 53 49 46 43 29 43 43 59 57 59 58 48 47 51 48 50 51 41 36 31 34
25 26 28 28 30 29 29 29 29 29 29 30 32 34 34 34 34 33 39 35 28 35 32 34 62 68 61 47 61 50 39 34 45 52 62 56 59 48 34 54 49 53 49 44 39 32 28
24 25 26 26 28 28 26 29 27 26 27 28 30 32 30 35 35 32 31 29 29 26 14 26 43 49 56 62 50 50 42 38 43 52 50 66 60 57 39 45 46 54 40 43 37 34 34
22 23 23 24 24 23 24 25 25 23 23 23 24 25 31 34 34 31 28 31 35 33 11 26 36 35 39 45 57 41 47 46 44 34 38 52 55 41 65 57 39 31 14 14 20 22 14
19 19 18 18 20 22 24 24 23 22 22 21 20 21 25 29 28 28 28 30 35 23 24 18 35 46 52 53 50 53 46 54 45 33 35 49 53 36 42 38 39 42 24 6 5 7 10
19 19 18 18 19 21 22 23 23 22 21 20 19 20 22 23 25 26 28 33 27 52 45 9 34 34 46 47 52 52 49 51 60 44 42 34 20 54 40 43 43 39 36 15 11 8 9
19 18 18 19 20 21 22 24 23 22 21 21 23 25 26 26 24 25 28 25 22 37 44 39 34 32 37 40 31 45 67 54 59 62 53 41 42 33 54 42 40 39 41 49 9 5 1
19 19 19 18 18 19 21 22 23 22 20 18 21 25 28 24 23 26 29 32 28 32 23 31 38 37 39 38 39 37 47 66 63 68 63 44 28 41 39 37 36 43 44 32 28 6 9
21 21 21 21 21 21 21 21 21 21 19 19 24 26 27 18 22 27 30 41 48 46 34 30 32 27 34 39 48 45 36 40 60 70 67 59 34 15 41 45 49 48 37 28 26 27 9
24 23 24 24 25 25 24 23 22 21 19 23 25 26 21 17 18 24 35 42 48 50 44 27 37 40 42 37 44 42 47 48 42 59 64 71 43 40 37 42 50 53 50 54 30 21 32
26 26 25 25 24 24 24 24 23 22 22 24 27 28 24 21 24 27 32 39 43 51 48 47 46 21 31 44 44 53 48 39 36 42 67 62 53 31 26 34 44 57 59 51 48 29 36
25 22 21 21 21 20 19 21 22 22 22 26 28 28 28 30 35 34 31 35 37 44 45 44 44 57 27 30 52 49 49 41 47 38 33 58 55 63 39 56 44 43 54 56 48 35 50
22 21 20 20 20 19 19 20 20 20 22 26 30 35 34 22 30 33 36 37 29 33 38 35 42 49 59 42 18 43 47 45 34 44 48 47 54 49 66 50 33 54 52 60 57 69 44
22 21 20 20 19 19 20 21 21 20 23 29 35 37 36 38 39 38 35 40 43 40 23 26 40 46 52 56 48 25 23 40 44 38 43 48 34 58 51 53 52 37 43 54 62 71 61
18 17 17 18 18 17 18 20 22 23 26 32 34 35 35 38 34 36 48 45 42 36 45 45 38 32 32 62 49 33 22 39 43 40 47 42 44 23 47 56 47 34 67 47 53 58 67
14 13 12 13 16 16 17 18 20 22 29 33 36 35 41 44 44 51 47 47 46 41 45 43 37 38 49 35 37 44 39 40 51 35 40 49 46 36 12 28 20 49 48 65 48 48 58
10 10 11 10 11 13 16 18 21 23 29 33 34 35 38 48 49 50 48 48 48 48 49 45 39 37 28 28 32 35 32 33 36 32 31 35 34 14 12 25 6 34 37 40 52 72 67
9 9 9 11 12 13 15 17 22 23 31 35 34 36 43 50 62 53 54 52 50 47 46 43 33 31 33 25 32 29 18 14 15 20 36 38 38 27 10 6 7 15 26 27 27 50 47
9 10 10 10 10 12 14 16 25 26 27 31 37 37 43 56 60 55 56 51 43 42 39 36 30 32 34 43 29 27 25 25 13 19 19 31 34 39 30 9 12 21 10 16 24 25 22
13 12 11 12 12 12 14 19 23 24 23 31 41 44 47 57 59 58 53 49 45 39 37 30 25 32 29 42 30 24 17 18 25 33 33 33 26 18 20 13 15 22 17 25 29 30 24
15 15 14 15 14 13 15 19 21 23 26 30 42 28 33 51 60 53 46 42 44 41 35 36 32 31 38 21 31 22 19 16 16 19 35 29 35 37 30 32 33 21 17 19 21 25 21
Wind_Direction
270 269 266 263 260 259 259 258 255 253 251 250 249 249 244 245 248 249 249 249 248 250 251 250 251 250 246 245 241 240 252 242 238 237 235 236 239 240 242 242 239 241 244 248 251 246 250
270 268 266 265 261 259 258 257 257 255 252 249 248 247 247 241 245 242 246 248 248 249 250 250 250 250 250 248 246 234 239 240 236 231 232 235 237 236 239 241 239 242 243 245 246 249 252
268 267 264 263 263 260 257 255 255 255 255 253 250 247 246 247 243 243 239 243 252 250 249 250 249 249 250 248 245 239 235 239 240 239 232 232 231 234 235 239 243 242 246 249 247 246 252
267 265 262 261 259 257 257 257 256 255 254 253 252 252 248 246 244 242 244 248 251 248 247 246 249 250 252 250 247 242 234 236 236 238 235 237 237 232 230 234 240 244 243 248 241 243 245
276 267 269 263 260 261 259 255 254 254 255 255 254 252 251 248 245 245 243 241 243 238 231 249 242 248 254 254 249 244 239 235 238 232 231 232 237 236 234 232 238 237 240 245 248 244 245
276 265 266 259 260 260 260 258 258 258 256 252 253 253 251 248 246 244 243 240 234 240 243 243 239 242 249 252 252 250 241 235 234 230 227 228 229 234 234 227 225 229 237 241 243 242 246
278 262 256 247 253 256 258 258 261 260 259 259 257 255 252 250 247 244 241 239 236 240 229 233 241 240 234 247 250 246 247 230 228 227 227 228 226 229 233 234 240 242 243 252 255 253 260
275 251 251 247 249 254 259 263 264 263 263 263 261 258 257 253 250 244 240 235 234 235 239 241 245 249 246 241 239 229 226 214 222 225 224 227 233 234 238 239 239 242 245 247 249 245 261
270 248 247 249 248 256 259 260 262 264 264 263 263 261 263 261 255 246 241 239 236 224 241 242 247 249 252 238 234 232 227 226 230 225 224 225 237 236 233 238 235 238 242 241 249 259 260
271 256 256 258 255 260 262 257 257 259 260 261 259 259 259 260 255 250 241 236 231 235 248 247 247 249 245 240 239 233 235 236 226 228 225 229 231 239 239 238 236 239 243 247 252 255 257
267 263 266 264 260 263 263 258 255 258 260 262 261 256 252 253 253 250 244 225 208 228 224 235 241 244 245 235 247 243 227 223 225 229 216 230 232 226 223 232 232 240 245 248 249 252 261
281 277 274 267 260 260 258 255 253 256 262 266 266 249 245 249 251 248 241 215 205 221 233 221 227 226 228 231 235 231 219 222 222 228 229 238 235 231 238 233 227 239 220 227 235 242 246
283 280 270 269 265 259 257 256 253 256 261 262 261 252 249 250 249 247 232 213 226 227 225 181 211 220 233 235 230 214 209 214 209 202 209 231 227 234 240 230 229 228 214 180 207 193 248
286 278 271 269 264 259 256 253 253 256 258 256 257 251 249 247 243 235 224 209 221 226 223 213 211 218 217 223 225 214 205 213 216 210 217 217 224 222 220 226 210 209 197 196 204 201 237
291 284 278 272 266 261 255 253 253 254 250 254 258 255 249 243 243 236 225 235 223 220 234 236 228 219 209 213 219 215 208 209 217 213 213 215 231 236 223 217 210 208 202 226 227 212 205
293 288 282 278 274 268 262 258 254 252 254 256 258 257 251 246 244 238 233 239 235 223 232 221 225 213 210 208 204 200 204 214 213 219 214 218 232 231 229 214 218 217 226 205 223 196 234
291 288 285 281 276 271 266 261 255 251 252 253 257 256 260 249 238 233 232 238 241 229 232 254 232 230 220 207 210 203 200 222 224 218 221 219 222 223 214 201 205 204 208 210 220 221 216
287 285 281 276 272 269 265 260 256 253 249 245 248 250 259 260 243 233 236 238 237 245 238 258 263 250 249 229 218 204 210 225 233 224 216 218 224 234 221 221 222 212 208 210 205 205 226
290 284 279 277 274 268 263 257 252 248 242 242 242 249 245 250 237 240 247 249 247 247 252 251 254 266 234 225 216 214 221 233 218 211 214 217 217 221 222 219 219 218 216 219 216 223 221
287 284 278 275 271 266 260 251 244 241 234 239 243 243 247 241 247 250 257 262 255 252 258 252 253 248 253 266 218 217 222 231 220 212 223 215 214 216 222 223 216 217 221 221 220 223 230
288 280 277 272 269 260 256 247 239 234 236 236 239 242 244 242 242 253 254 255 265 261 250 249 250 254 252 262 254 211 220 218 223 219 219 217 218 218 226 226 229 227 220 223 218 226 222
290 280 276 272 269 260 252 246 244 238 235 240 236 235 242 252 255 260 256 257 254 250 250 249 254 250 258 259 261 253 223 216 220 215 217 220 221 219 230 225 232 232 227 227 228 230 232
293 288 277 273 269 264 256 246 240 238 236 244 247 249 254 250 256 253 256 263 266 265 262 254 254 255 255 256 253 264 264 238 226 220 209 212 214 210 225 224 230 237 233 228 235 239 236
295 286 285 278 269 262 256 250 245 240 241 244 250 253 249 258 255 257 263 265 269 267 269 266 263 258 249 245 252 268 272 240 220 212 212 213 221 219 236 223 222 242 239 231 230 234 232
306 298 292 280 274 269 264 256 254 249 250 253 256 253 254 260 258 260 262 264 268 269 265 264 253 251 259 261 252 261 267 234 207 216 212 220 220 213 199 204 236 236 239 227 224 238 235
334 324 310 297 291 283 272 263 258 253 254 260 254 256 257 259 255 260 264 267 265 263 268 262 253 248 235 255 230 228 239 213 207 210 222 234 237 226 197 197 213 264 253 239 233 239 240
354 342 338 331 316 300 283 268 272 267 272 264 261 258 261 259 260 257 255 259 265 257 257 264 258 241 232 234 240 216 253 212 206 193 200 205 217 220 234 228 252 250 249 174 184 251 265
12 1 347 334 320 300 291 292 290 285 272 270 267 260 256 259 262 259 257 256 256 248 246 253 249 239 226 223 231 221 255 220 213 214 206 196 187 191 205 199 245 241 229 225 260 260 257
352 350 347 337 334 317 306 308 308 302 293 285 287 285 266 248 255 261 263 257 252 254 255 245 246 238 215 205 220 224 231 230 218 210 215 209 213 215 220 231 235 245 260 252 256 256 254